Weather History for KY70 - April, 2013

Change the Weather History Date:

Tuesday, April 30, 2013

  Actual Average (KGRR) Record (KGRR)
Temperature  
Mean Temperature 65 °F 54 °F  
Max Temperature 76 °F 64 °F 87 °F (1942)
Min Temperature 54 °F 43 °F 26 °F (1971)
Degree Days  
Heating Degree Days 0 12  
Month to date heating degree days 518  
Since 1 July heating degree days 6205  
Cooling Degree Days 0 0  
Month to date cooling degree days 7  
Year to date cooling degree days 8  
Growing Degree Days 15 (Base 50)    
Moisture  
Dew Point 56 °F    
Average Humidity 76    
Maximum Humidity 94    
Minimum Humidity 57    
Precipitation  
Precipitation 0.25 in 0.12 in 1.85 in (1963)
Month to date precipitation 3.35  
Year to date precipitation 9.60  
Snow  
Snow 0.00 in 0.00 in 3.60 in (1963)
Month to date snowfall 1.8  
Since 1 July snowfall 74.9  
Snow Depth -    
Sea Level Pressure  
Sea Level Pressure 29.93 in    
Wind  
Wind Speed 12 mph (SSE)    
Max Wind Speed 29 mph    
Max Gust Speed 34 mph    
Visibility 9 miles    
Events Rain    
T = Trace of Precipitation, MM = Missing Value Source: NWS Daily Summary

Daily Weather History Graph

Daily Weather History Graph

Search for Another Location

Airport or City:

Trip Planner

Search our weather history database for the weather conditions in past years. The results will help you decide how hot, cold, wet, or windy it might be!

Date:

Astronomy

Apr. 30, 2013 Rise Set
Actual Time 6:35 AM EDT 8:40 PM EDT
Civil Twilight 6:04 AM EDT 9:11 PM EDT
Nautical Twilight 5:26 AM EDT 9:49 PM EDT
Astronomical Twilight 4:44 AM EDT 10:31 PM EDT
Moon 1:04 AM EDT (4/30) 11:01 AM EDT (4/30)
Length of Visible Light 15h 06m
Length of Day
14h 05m
Waning Gibbous, 70% of the Moon is Illuminated
Apr 30
Waning Gibbous
May 2
Last Quarter
May 9
New
May 18
First Quarter
May 25
Full

Hourly Weather History & Observations

Time (EDT) Temp. Dew Point Humidity Pressure Visibility Wind Dir Wind Speed Gust Speed Precip Events Conditions
12:14 AM 62.2 °F 53.1 °F 72% 29.89 in 10.0 mi SSW 6.9 mph - N/A   Overcast
12:34 AM 61.3 °F 52.7 °F 73% 29.89 in 10.0 mi SSW 8.1 mph - N/A   Scattered Clouds
12:54 AM 60.3 °F 52.7 °F 76% 29.89 in 10.0 mi South 8.1 mph - N/A   Scattered Clouds
1:13 AM 61.2 °F 52.5 °F 73% 29.90 in 10.0 mi South 8.1 mph - N/A   Mostly Cloudy
1:34 AM 60.6 °F 52.3 °F 74% 29.91 in 10.0 mi South 6.9 mph - N/A   Scattered Clouds
1:54 AM 58.6 °F 52.0 °F 79% 29.89 in 10.0 mi SSE 6.9 mph - N/A   Clear
2:14 AM 56.5 °F 51.8 °F 84% 29.90 in 10.0 mi SSE 6.9 mph - N/A   Clear
2:34 AM 58.1 °F 52.2 °F 81% 29.91 in 10.0 mi South 6.9 mph - N/A   Clear
2:54 AM 59.4 °F 52.5 °F 78% 29.90 in 10.0 mi South 10.4 mph - N/A   Clear
3:14 AM 56.8 °F 52.3 °F 85% 29.90 in 10.0 mi South 10.4 mph - N/A   Clear
3:34 AM 56.7 °F 52.2 °F 85% 29.90 in 10.0 mi SSE 9.2 mph - N/A   Clear
3:54 AM 56.5 °F 52.5 °F 87% 29.89 in 10.0 mi SSE 11.5 mph - N/A   Scattered Clouds
4:14 AM 56.5 °F 52.3 °F 86% 29.89 in 10.0 mi SSE 11.5 mph - N/A   Scattered Clouds
4:34 AM 56.7 °F 52.3 °F 85% 29.90 in 10.0 mi South 8.1 mph - N/A   Clear
4:54 AM 55.2 °F 51.4 °F 87% 29.90 in 10.0 mi SE 3.5 mph - N/A   Scattered Clouds
5:14 AM 55.4 °F 51.8 °F 88% 29.90 in 10.0 mi SSE 6.9 mph - N/A   Mostly Cloudy
5:34 AM 54.9 °F 52.2 °F 91% 29.90 in 10.0 mi South 8.1 mph - N/A   Scattered Clouds
5:54 AM 54.5 °F 52.2 °F 92% 29.89 in 10.0 mi SSE 11.5 mph - N/A   Clear
6:14 AM 54.9 °F 52.2 °F 91% 29.89 in 10.0 mi South 11.5 mph - N/A   Clear
6:34 AM 56.3 °F 52.5 °F 87% 29.91 in 10.0 mi South 5.8 mph - N/A   Mostly Cloudy
6:54 AM 56.3 °F 53.1 °F 89% 29.90 in 10.0 mi SSE 9.2 mph - 0.02 in Rain Light Rain
7:14 AM 56.1 °F 53.4 °F 91% 29.91 in 10.0 mi South 6.9 mph - N/A   Light Drizzle
7:33 AM 57.2 °F 53.6 °F 88% 29.97 in 10.0 mi West 5.8 mph - N/A Rain Light Rain
7:54 AM 56.1 °F 53.8 °F 92% 29.94 in 4.0 mi SSE 13.8 mph - 0.04 in Rain Heavy Rain
8:14 AM 55.9 °F 54.1 °F 94% 29.92 in 4.0 mi SE 18.4 mph - 0.04 in Rain Rain
8:34 AM 55.8 °F 54.0 °F 94% 29.90 in 4.0 mi SE 19.6 mph - 0.07 in Rain Rain
8:54 AM 56.5 °F 54.3 °F 92% 29.98 in 3.0 mi South 8.1 mph - 0.15 in Rain Heavy Rain
8:58 AM 56.3 °F 54.1 °F 92% 29.97 in 3.0 mi South 12.7 mph - 0.17 in Rain Heavy Rain
9:40 AM 55.4 °F 53.6 °F 94% 29.93 in 4.0 mi ESE 11.5 mph - N/A   Overcast
10:00 AM 55.4 °F 53.6 °F 94% 29.98 in 3.0 mi East 12.7 mph 17.3 mph 0.01 in Rain Heavy Rain
10:17 AM 57.2 °F 53.6 °F 88% 29.96 in 7.0 mi SE 19.6 mph - 0.02 in   Overcast
10:36 AM - - N/A% - - SE 16.1 mph - N/A   Unknown
11:00 AM 57.2 °F 55.4 °F 94% 29.96 in 5.0 mi SE 13.8 mph - N/A   Overcast
11:16 AM - - N/A% - 7.0 mi SSE 18.4 mph - N/A   Unknown
11:36 AM - - N/A% - - North - - N/A   Unknown
11:49 AM 59.0 °F 56.3 °F 91% 29.95 in 7.0 mi SSE 17.3 mph - N/A   Overcast
12:14 PM 60.8 °F 57.4 °F 88% 29.95 in 10.0 mi SSE 15.0 mph 20.7 mph N/A   Mostly Cloudy
12:34 PM 63.0 °F 55.9 °F 78% 29.94 in 10.0 mi South 20.7 mph 27.6 mph N/A   Clear
12:54 PM 63.9 °F 55.9 °F 75% 29.94 in 10.0 mi SSE 24.2 mph 32.2 mph N/A   Clear
1:14 PM 64.2 °F 55.8 °F 74% 29.93 in 10.0 mi SSE 24.2 mph 34.5 mph N/A   Clear
1:34 PM 64.9 °F 56.8 °F 75% 29.93 in 10.0 mi SSE 24.2 mph 33.4 mph N/A   Clear
1:54 PM 65.3 °F 57.0 °F 75% 29.93 in 10.0 mi SSE 28.8 mph 33.4 mph N/A   Clear
2:14 PM 67.1 °F 57.9 °F 72% 29.93 in 10.0 mi SSE 20.7 mph 33.4 mph N/A   Clear
2:34 PM 68.2 °F 58.8 °F 72% 29.93 in 10.0 mi South 20.7 mph 26.5 mph N/A   Clear
2:53 PM 69.3 °F 58.8 °F 69% 29.93 in 10.0 mi South 18.4 mph 29.9 mph N/A   Scattered Clouds
3:14 PM 70.9 °F 59.2 °F 66% 29.92 in 10.0 mi South 16.1 mph 25.3 mph N/A   Scattered Clouds
3:34 PM 72.0 °F 58.6 °F 63% 29.92 in 10.0 mi South 23.0 mph 27.6 mph N/A   Clear
3:54 PM 72.9 °F 59.0 °F 62% 29.92 in 10.0 mi South 23.0 mph 27.6 mph N/A   Clear
4:14 PM 73.6 °F 59.5 °F 61% 29.92 in 10.0 mi South 17.3 mph 25.3 mph N/A   Clear
4:34 PM 74.3 °F 59.4 °F 60% 29.90 in 10.0 mi South 18.4 mph 26.5 mph N/A   Clear
4:54 PM 74.8 °F 59.7 °F 59% 29.90 in 10.0 mi South 16.1 mph 26.5 mph N/A   Clear
5:14 PM 75.4 °F 60.1 °F 59% 29.90 in 10.0 mi South 17.3 mph 24.2 mph N/A   Clear
5:34 PM 75.4 °F 60.6 °F 60% 29.90 in 10.0 mi South 15.0 mph 25.3 mph N/A   Clear
5:54 PM 75.7 °F 59.4 °F 57% 29.91 in 10.0 mi South 17.3 mph 27.6 mph N/A   Clear
6:14 PM 76.1 °F 60.1 °F 57% 29.91 in 10.0 mi South 15.0 mph 26.5 mph N/A   Clear
6:34 PM 75.6 °F 60.1 °F 59% 29.92 in 10.0 mi South 19.6 mph 25.3 mph N/A   Clear
6:54 PM 75.2 °F 59.9 °F 59% 29.92 in 10.0 mi South 19.6 mph 25.3 mph N/A   Clear
7:14 PM 75.2 °F 59.9 °F 59% 29.92 in 10.0 mi South 13.8 mph 21.9 mph N/A   Clear
7:34 PM 74.3 °F 59.9 °F 61% 29.93 in 10.0 mi South 17.3 mph 21.9 mph N/A   Clear
7:54 PM 73.6 °F 59.9 °F 62% 29.93 in 10.0 mi South 15.0 mph 19.6 mph N/A   Clear
8:14 PM 72.7 °F 59.9 °F 64% 29.94 in 10.0 mi South 13.8 mph - N/A   Clear
8:34 PM 71.8 °F 59.9 °F 66% 29.94 in 10.0 mi South 11.5 mph - N/A   Clear
8:54 PM 70.9 °F 59.9 °F 68% 29.95 in 10.0 mi South 10.4 mph - N/A   Clear
9:14 PM 69.8 °F 59.7 °F 70% 29.96 in 10.0 mi South 12.7 mph - N/A   Clear
9:34 PM 69.6 °F 59.4 °F 70% 29.98 in 10.0 mi South 10.4 mph - N/A   Clear
9:54 PM 69.4 °F 59.4 °F 70% 29.99 in 10.0 mi South 10.4 mph - N/A   Clear
10:14 PM 69.1 °F 59.0 °F 70% 29.99 in 10.0 mi South 9.2 mph - N/A   Clear
10:34 PM 68.9 °F 58.6 °F 70% 29.99 in 10.0 mi South 10.4 mph - N/A   Clear
10:54 PM 68.5 °F 58.3 °F 70% 30.00 in 10.0 mi South 11.5 mph - N/A   Clear
11:14 PM 68.0 °F 58.1 °F 71% 30.00 in 10.0 mi South 11.5 mph - N/A   Clear
11:34 PM 66.7 °F 58.1 °F 74% 30.00 in 10.0 mi South 9.2 mph - N/A   Clear
11:54 PM 64.9 °F 57.7 °F 77% 30.00 in 10.0 mi SSE 9.2 mph - N/A   Clear